Weather in Shardara

Kazakhstan     41°15′24″N   67°58′07″E
temp.,
°C
wind,
m/s
gust,
m/s
humid.,
%
clouds,
%
prec.,
mm/h
press.,
hPa
HPBL,
m
14 may, fri
fri1400:00+21nne915300 0.0 1013517
03:00+19nne814300 0.0 1012498
06:00+18nne712330 0.0 1012394
09:00+20ne57420 0.0 1013422
12:00+24ene34340 0.0 1013631
15:00+28nne66270 0.0 10121288
18:00+27nne1113270 0.0 10121147
21:00+23nne1117380 0.0 1012705
15 may, sat
sat1500:00+21nne916390 0.0 1011635
03:00+19n915400 0.0 1010666
06:00+17n812470 0.0 1010470
09:00+18nnw33460 0.0 1010435
12:00+22se22380 0.0 1011659
15:00+25e34340 0.0 1010758
18:00+27ene24290 0.0 10081023
21:00+23nne59390 0.0 1009188
16 may, sun
sun1600:00+19n57420 0.0 1010151
03:00+17n57430 0.0 1009144
06:00+16nw22470 0.0 101067
09:00+20wnw11380 0.0 1011211
12:00+24ssw11320 0.0 1011494
15:00+26sw11260 0.0 1010775
18:00+28sw12260 0.0 1008872
21:00+24nne59390 0.0 1009170
17 may, mon
mon1700:00+21n45460 0.0 100972
03:00+19n34470 0.0 100967
06:00+19nnw22490 0.0 100927
09:00+22n11430 0.0 1011140
12:00+26sse23320 0.0 1010487
15:00+29se12300 0.0 1009892
18:00+31ne22220 0.0 10071782
21:00+29nne33242 0.0 100721
18 may, tue
tue1800:00+24ene47422 0.0 100791
03:00+23ene33373 0.0 100719
06:00+21e33424 0.0 100720
09:00+25ene23332 0.0 1008153
12:00+29ese122531 0.0 1007824
15:00+31ssw33220 0.0 10061745
18:00+33wnw34190 0.0 10042002
21:00+28nne482518 0.0 1005104